Rbgn^[z[y[W
メイン
   新天体発見情報
     Comet P/2019 A3 (PANSTARRS)
投稿するにはまず登録を

スレッド表示 | 新しいものから 前のトピック | 次のトピック | 下へ
投稿者 スレッド
佐藤裕久
投稿日時: 2019-1-27 13:31
モデレータ
登録日: 2005-6-12
居住地: 日本
投稿: 2666
オンライン
Comet P/2019 A3 (PANSTARRS)

R. WerykとR. Wainscoat(ハワイ大学天文学研究所)の通報によると、1月3日UT、Haleakala にある
1.8-m Pan-STARRS1望遠鏡で得たw-バンド画像から他の彗星を発見した(また、Pan-STARRS1による
より早い2018年中の観測もあった)。
1月3.3日UTのスタック画像では、FWHM(半値全幅)はシ―イングが1".1から1".6で、この彗星は約
1".9であった。
WerykとWainscoatは、1月4.3日と10.23日、Wainscoat, D. WoodworthとS. PrunetがMauna Keaに
ある3.6-m Canada-France-Hawaii望遠鏡で得たフォローアップgri-バンドCCD露出60秒3枚で、21.3-
21.5等と21.9-22.2等であった。北東にそれぞれ短い 3" と 6" の尾があった。この彗星の頭部の
FWHM(半値全幅)はそれぞれシーイングが0".6で約1".5と1".1,であったと加えた。
また、Pan-STARRS2による発見前の観測もあった。

発見位置は次のとおり、

     2018 UT             R.A. (2000) Decl.       Mag.
     Aug.  8.59515    1 45 29.64   - 0 42 56.3   23.8
           8.60228    1 45 29.88   - 0 42 53.8   22.9
           8.60942    1 45 30.10   - 0 42 51.8   23.4
           8.61658    1 45 30.32   - 0 42 49.9   23.3
          11.59551    1 46 59.15   - 0 28 24.9   23.8
          11.60344    1 46 59.35   - 0 28 23.2   22.2
          11.61140    1 46 59.56   - 0 28 20.6   22.5
          11.61937    1 46 59.76   - 0 28 18.4   22.4
          21.57665    1 50 14.30   + 0 14 42.7   23.5
          21.59120    1 50 14.41   + 0 14 46.1   22.7

     2019 UT             R.A. (2000) Decl.       Mag.
     Jan.  3.26880    1 06 49.18   +11 01 03.5   21.9
           3.28215    1 06 49.81   +11 01 10.6   21.8
           3.29550    1 06 50.43   +11 01 17.5   21.5

楕円軌道要素と位置推算表は次のとおり、

Orbital elements:
    P/2019 A3 (PANSTARRS)
Epoch 2018 July 21.0 TT = JDT 2458320.5
T 2018 Aug. 1.80069 TT                                  MPCW
q   2.3134204            (2000.0)            P               Q
n   0.17656580     Peri.  325.47270     +0.98790878     +0.07103334
a   3.1467699      Node    31.33334     +0.02450961     +0.80612924
e   0.2648270      Incl.   15.36716     -0.15308666     +0.58746056
P   5.58
From 34 observations 2018 Aug. 8-2019 Jan. 10, mean residual 0".3.

    P/2019 A3 (PANSTARRS)
Epoch 2024 Feb. 20.0 TT = JDT 2460360.5
T 2024 Mar. 2.59848 TT                                  MPCW
q   2.3071577            (2000.0)            P               Q
n   0.17681591     Peri.  325.71282     +0.98816317     +0.06758682
a   3.1438017      Node    31.29337     +0.02730017     +0.80591071
e   0.2661249      Incl.   15.37486     -0.15095775     +0.58816659
P   5.57
From 34 observations 2018 Aug. 8-2019 Jan. 10, mean residual 0".3.

    P/2019 A3 (PANSTARRS)
Epoch 2019 Apr. 27.0 TT = JDT 2458600.5
T 2018 Aug. 1.82014 TT                                  MPCW
q   2.3133308            (2000.0)            P               Q
n   0.17650523     Peri.  325.47488     +0.98791278     +0.07100497
a   3.1474898      Node    31.33265     +0.02452176     +0.80613853
e   0.2650236      Incl.   15.36586     -0.15305892     +0.58745124
P   5.58
From 34 observations 2018 Aug. 8-2019 Jan. 10, mean residual 0".3.

Ephemeris:
    P/2019 A3 (PANSTARRS)
Date    TT    R. A. (2000) Decl.     Delta      r     Elong.  Phase   m1    m2
2018 12 11    00 53 34.6 +07 48 31   1.8250  2.4323   116.7    21.2
...
2018 12 26    01 00 46.2 +09 49 19   2.0304  2.4590   103.9    22.8
...
2019 01 03    01 06 36.2 +10 58 41   2.1459  2.4742    97.5    23.2
...
2019 01 09    01 11 46.1 +11 52 31   2.2340  2.4859    92.9    23.3
2019 01 10    01 12 41.4 +12 01 38   2.2488  2.4879    92.1    23.3
2019 01 11    01 13 37.7 +12 10 46   2.2636  2.4899    91.4    23.3
...
2019 01 17    01 19 35.5 +13 06 15   2.3527  2.5020    87.0    23.1
...
2019 01 25    01 28 21.2 +14 21 35   2.4715  2.5186    81.3    22.7
...
2019 02 09    01 46 56.4 +16 45 05   2.6917  2.5511    71.2    21.5

(CBET 4598、MPEC 2019-A166)

スレッド表示 | 新しいものから 前のトピック | 次のトピック | トップ

投稿するにはまず登録を
 
© 1999 Tsutomu Seki.